This demonstration page uses our WeatherBlox Daily Observations layout. Learn more.

Left ArrowRight Arrow

36.19886, -115.1175

Hourly Observations for January 16, 2021

Temp ( °F °C ) Dew Point ( °F °C ) Humidity (%) Winds ( mph kmh ) Pressure ( in mb ) Visibility ( mi km ) Precip ( " mm )
12:53 am 00:53 Clear 52 11.1 21 -6.1 30 30 SSW 3 6 30.13 1020 10 16.0934 0 0
1:53 am 01:53 Clear 51 10.6 17 -8.3 26 26 NNW 5 7 30.14 1021 10 16.0934 0 0
2:53 am 02:53 Clear 49 9.4 17 -8.3 28 28 WNW 10 17 30.13 1020 10 16.0934 0 0
3:53 am 03:53 Clear 55 12.8 14 -10 20 20 N 8 13 30.12 1020 10 16.0934 0 0
4:53 am 04:53 Clear 50 10 15 -9.4 25 25 NNW 7 11 30.12 1020 10 16.0934 0 0
5:53 am 05:53 Clear 57 13.9 15 -9.4 19 19 NNE 10 17 30.15 1021 10 16.0934 0 0
6:53 am 06:53 Sunny 51 10.6 15 -9.4 24 24 VRB 5 7 30.17 1022 10 16.0934 0 0
7:53 am 07:53 Sunny 51 10.6 16 -8.9 25 25 Calm 30.21 1023 10 16.0934 0 0
8:53 am 08:53 Sunny 58 14.4 18 -7.8 21 21 SSE 5 7 30.24 1024 10 16.0934 0 0
9:53 am 09:53 Sunny 68 20 21 -6.1 17 17 NNE 9 15 30.23 1024 10 16.0934 0 0
10:53 am 10:53 Sunny 71 21.7 23 -5 16 16 NNE 10 17 30.21 1023 10 16.0934 0 0
11:53 am 11:53 Sunny 72 22.2 25 -3.9 17 17 NW 9 15 30.17 1022 10 16.0934 0 0
12:53 pm 12:53 Sunny 73 22.8 24 -4.4 16 16 E 9 15 30.14 1021 10 16.0934 0 0
1:53 pm 13:53 Sunny 73 22.8 23 -5 15 15 E 16 26 30.13 1020 10 16.0934 0 0
2:53 pm 14:53 Sunny 73 22.8 23 -5 15 15 ENE 14 22 30.13 1020 10 16.0934 0 0
3:53 pm 15:53 Sunny 72 22.2 23 -5 16 16 ENE 13 20 30.12 1020 10 16.0934 0 0
4:53 pm 16:53 Clear 70 21.1 22 -5.6 16 16 NE 6 9 30.14 1021 10 16.0934 0 0
5:53 pm 17:53 Clear 64 17.8 21 -6.1 19 19 E 7 11 30.15 1021 10 16.0934 0 0
6:53 pm 18:53 Clear 63 17.2 22 -5.6 21 21 NE 7 11 30.17 1022 10 16.0934 0 0
7:53 pm 19:53 Clear 61 16.1 22 -5.6 22 22 NE 9 15 30.17 1022 10 16.0934 0 0
8:53 pm 20:53 Clear 56 13.3 23 -5 28 28 WSW 5 7 30.19 1022 10 16.0934 0 0
9:53 pm 21:53 Clear 52 11.1 23 -5 32 32 NW 3 6 30.19 1023 10 16.0934 0 0
10:53 pm 22:53 Clear 51 10.6 23 -5 33 33 W 8 13 30.2 1023 10 16.0934 0 0
11:53 pm 23:53 Clear 56 13.3 20 -6.7 24 24 Calm 30.19 1022 10 16.0934 0 0

Powered by AerisWeather